THORAD AGENA D DEB, 4650

Orbit data source: Space-Track

THORAD AGENA D DEB, 4650 is space debris in SSO originally from a launch on Wed, 08 Apr 1970 UTC launched from the Air Force Western Test Range (AFWTR). Debris objects in space refer to the collection of defunct objects orbiting the Earth. Examples of debris include non-operational satellites, rocket bodies, and fragments generated from explosions, collisions, or faulty payload assembly.

Loading next visibility...
Identifier
4650, 1970-025AJ
Orbit
SSO
Last TLE update
10 hours ago
Origin
Manufacturer
Unknown
Mission
Spacecraft
Bus & Motor
Unknown
Mass
Unknown
Launch date (UTC)
1970-04-08 (55 years ago)
Launch vehicle
Unknown
Launch site
Air Force Western Test Range (AFWTR)
Object type
Payload
Rocket body
Debris
Shape & HBR
Unknown
Radar Cross Section
Small (<0.1 m²)

Expand to show TLE details & history

TLE from 10 hours ago
0 THORAD AGENA D DEB
1 04650U 70025AJ  25182.81314471  .00000628  00000-0  36222-3 0  9990
2 04650  99.8305 272.6707 0113691 332.8182  26.7062 14.10155553808290
Epoch: 2025-07-01T19:30Z
TLE epoch observation values (Epoch: 2025-07-01T19:30:55.702Z)
Latitude
-0.0001°
Longitude
59.83541°
Altitude
788.38 km
Speed
7.497 km/s
True Right ascension
18h 10m 40s
True Declination
0° 00' 00"
Sunlit
Object was in full shadow at epoch
Visualization orbit readout
Latitude
-33.58327°
Longitude
-126.30279°
Altitude
909.106 km
Speed
7.377 km/s
Apparent Right ascension
05h 18m 37s
Apparent Declination
-36° 36' 46"
Sunlit
Object is in daylight
Visualization observer readout
Local Sidereal Time
16:44:27
Azimuth
293.53° NW
Elevation
-82.529°
Doppler factor
1
Orbital elements
Apogee altitude
938.314 km
Perigee altitude
773.821 km
Semi-major axis
7,234.204 km
Eccentricity
0.01137
Inclination
99.8305°
RAAN
272.6707°
Arg. of periapsis
332.8182°
True anomaly
Unknown
Mean anomaly
26.7062°
Eccentric anomaly
Unknown
Mean motion
3.52742 °/min
Orbital period
102.06 mins
BSTAR
0.00036222
Loading maneuver chart data...
Loading SW <> Apogee altitude chart data...

THORAD AGENA D DEB Visibility forecast

Observer location: undefined°, undefined°

Span
Click to sort rows by Start time (UTC) header in descending order
Start Az.
Max El. time (UTC)
Max El. Az.
Max El.
End time (UTC)
End Az.
9 mins2025-07-02 05:50:57.210Z161.625° S2025-07-02 05:54:57.210Z145.084° SSE44.386°2025-07-02 05:59:57.210Z346.084° N
9 mins2025-07-02 18:14:57.210Z36.903° NE2025-07-02 18:18:57.210Z90.393° ESE31.603°2025-07-02 18:23:57.210Z162.315° S
9 mins2025-07-02 19:55:57.210Z348.665° N2025-07-02 19:59:57.210Z293.362° NW28.318°2025-07-02 20:04:57.210Z234.39° WSW
|